Back to catalog

COSMOS 1275 DEB

AlivePO
NORAD 13797·DEBRIS·🇷🇺 Russia

Launched Jun 4, 1981 from Plesetsk Cosmodrome

Loading…

Next Passes (next 24 hours)

TLE

FreshSource: Space-Track

Epoch: Sep 14, 2026, 10:35 UTC

1 13797U 81053GR  26257.44105403  .00000344  00000-0  28148-3 0  9994
2 13797  82.8338 239.4223 0050656   4.6341 149.8901 13.86389942215773

Track COSMOS 1275 DEB in real time with AllMySat

Download on the App Store